Precipitable_Water
0.43 0.41 0.45 0.35 0.14 0.16 0.11 0.18 0.25 0.23 0.21 0.22 0.21 0.19 0.18 0.21 0.18 0.12 0.44 0.54 0.58 0.59 0.65 0.67 0.68 0.67 0.64 0.61 0.60 0.58 0.57 0.58 0.60 0.61 0.62 0.62 0.63 0.63 0.63 0.61 0.60 0.59 0.57 0.55 0.52 0.51 0.58 0.63 0.71
0.42 0.39 0.38 0.27 0.13 0.09 0.15 0.26 0.23 0.24 0.24 0.22 0.19 0.18 0.16 0.15 0.26 0.30 0.38 0.50 0.57 0.60 0.64 0.65 0.66 0.64 0.62 0.60 0.58 0.58 0.55 0.55 0.58 0.60 0.64 0.64 0.66 0.67 0.66 0.65 0.63 0.61 0.60 0.55 0.51 0.48 0.50 0.55 0.62
0.39 0.36 0.22 0.18 0.13 0.09 0.14 0.22 0.22 0.23 0.24 0.18 0.15 0.17 0.15 0.14 0.23 0.34 0.39 0.49 0.54 0.57 0.62 0.62 0.65 0.64 0.60 0.57 0.56 0.56 0.55 0.55 0.58 0.63 0.66 0.67 0.66 0.67 0.66 0.64 0.64 0.64 0.63 0.58 0.50 0.47 0.46 0.44 0.50
0.33 0.25 0.23 0.15 0.11 0.15 0.17 0.21 0.22 0.21 0.21 0.21 0.17 0.11 0.17 0.22 0.21 0.36 0.41 0.48 0.49 0.54 0.58 0.66 0.66 0.63 0.59 0.57 0.56 0.56 0.55 0.57 0.60 0.64 0.64 0.66 0.65 0.66 0.65 0.62 0.61 0.60 0.61 0.59 0.53 0.45 0.43 0.42 0.38
0.32 0.21 0.13 0.12 0.12 0.16 0.20 0.21 0.21 0.20 0.21 0.20 0.18 0.12 0.13 0.21 0.25 0.35 0.44 0.46 0.44 0.48 0.56 0.64 0.63 0.61 0.58 0.57 0.56 0.55 0.57 0.61 0.60 0.60 0.58 0.59 0.59 0.60 0.59 0.56 0.54 0.55 0.56 0.55 0.51 0.47 0.41 0.39 0.37
0.20 0.22 0.11 0.09 0.11 0.16 0.19 0.22 0.23 0.22 0.22 0.21 0.17 0.15 0.16 0.24 0.24 0.33 0.42 0.42 0.44 0.43 0.55 0.59 0.60 0.58 0.58 0.58 0.56 0.56 0.59 0.58 0.57 0.54 0.53 0.51 0.53 0.52 0.54 0.51 0.46 0.45 0.48 0.49 0.46 0.43 0.42 0.39 0.34
0.18 0.16 0.12 0.13 0.13 0.16 0.19 0.24 0.22 0.21 0.21 0.19 0.20 0.14 0.19 0.22 0.28 0.35 0.39 0.41 0.41 0.47 0.51 0.53 0.54 0.55 0.56 0.56 0.56 0.57 0.56 0.54 0.53 0.49 0.45 0.42 0.43 0.46 0.45 0.47 0.41 0.40 0.40 0.40 0.39 0.37 0.37 0.37 0.35
0.27 0.22 0.17 0.18 0.15 0.16 0.21 0.23 0.23 0.22 0.21 0.25 0.25 0.15 0.14 0.21 0.31 0.35 0.38 0.38 0.39 0.43 0.46 0.46 0.46 0.48 0.49 0.52 0.54 0.56 0.56 0.53 0.48 0.43 0.38 0.34 0.32 0.35 0.38 0.37 0.36 0.33 0.35 0.34 0.34 0.33 0.30 0.30 0.33
0.29 0.17 0.14 0.15 0.16 0.18 0.23 0.22 0.25 0.26 0.23 0.22 0.23 0.22 0.24 0.27 0.33 0.32 0.32 0.34 0.35 0.38 0.41 0.41 0.40 0.42 0.43 0.46 0.52 0.53 0.53 0.48 0.42 0.38 0.34 0.30 0.28 0.26 0.28 0.30 0.30 0.28 0.28 0.28 0.28 0.28 0.26 0.24 0.25
0.18 0.13 0.14 0.21 0.23 0.22 0.24 0.24 0.24 0.22 0.21 0.20 0.22 0.26 0.28 0.29 0.31 0.29 0.28 0.26 0.28 0.31 0.35 0.38 0.35 0.35 0.38 0.44 0.49 0.49 0.46 0.42 0.39 0.35 0.32 0.29 0.26 0.26 0.25 0.25 0.24 0.24 0.23 0.23 0.23 0.23 0.22 0.21 0.21
0.21 0.14 0.21 0.20 0.22 0.21 0.18 0.18 0.20 0.18 0.17 0.18 0.18 0.20 0.25 0.27 0.29 0.30 0.29 0.26 0.25 0.29 0.32 0.33 0.30 0.33 0.37 0.43 0.46 0.45 0.43 0.41 0.38 0.36 0.33 0.30 0.27 0.25 0.23 0.22 0.21 0.21 0.21 0.19 0.19 0.18 0.18 0.18 0.19
0.15 0.19 0.19 0.20 0.21 0.21 0.21 0.23 0.22 0.23 0.23 0.26 0.25 0.24 0.23 0.22 0.23 0.26 0.26 0.26 0.26 0.26 0.28 0.29 0.29 0.33 0.38 0.43 0.46 0.44 0.41 0.40 0.37 0.36 0.34 0.31 0.30 0.28 0.26 0.24 0.22 0.21 0.21 0.19 0.19 0.18 0.17 0.17 0.19
0.19 0.22 0.23 0.26 0.25 0.23 0.22 0.20 0.23 0.25 0.29 0.32 0.30 0.27 0.25 0.25 0.24 0.25 0.27 0.27 0.26 0.24 0.25 0.27 0.30 0.33 0.39 0.43 0.45 0.44 0.42 0.40 0.39 0.37 0.39 0.40 0.38 0.37 0.36 0.34 0.31 0.28 0.24 0.21 0.19 0.17 0.16 0.15 0.17
0.24 0.24 0.24 0.25 0.23 0.22 0.20 0.21 0.24 0.26 0.30 0.30 0.31 0.29 0.29 0.27 0.26 0.26 0.26 0.26 0.25 0.25 0.24 0.27 0.30 0.35 0.40 0.43 0.45 0.43 0.43 0.41 0.40 0.41 0.43 0.44 0.43 0.41 0.39 0.36 0.34 0.33 0.32 0.29 0.24 0.19 0.16 0.15 0.16
0.25 0.22 0.23 0.21 0.20 0.19 0.21 0.18 0.19 0.27 0.31 0.31 0.30 0.30 0.30 0.30 0.30 0.28 0.28 0.27 0.27 0.26 0.26 0.27 0.30 0.35 0.41 0.45 0.46 0.44 0.44 0.42 0.42 0.44 0.46 0.45 0.45 0.43 0.41 0.39 0.37 0.36 0.34 0.31 0.28 0.25 0.22 0.19 0.18
0.20 0.18 0.11 0.18 0.20 0.20 0.19 0.10 0.21 0.27 0.28 0.26 0.30 0.29 0.30 0.31 0.31 0.32 0.32 0.32 0.32 0.30 0.28 0.30 0.32 0.36 0.43 0.46 0.46 0.45 0.44 0.43 0.45 0.46 0.48 0.47 0.46 0.44 0.42 0.41 0.40 0.39 0.36 0.33 0.30 0.28 0.25 0.24 0.24
0.16 0.09 0.10 0.11 0.20 0.19 0.18 0.12 0.20 0.28 0.24 0.24 0.27 0.31 0.30 0.32 0.34 0.34 0.35 0.36 0.36 0.34 0.33 0.33 0.36 0.40 0.45 0.48 0.48 0.47 0.45 0.44 0.46 0.48 0.48 0.48 0.47 0.45 0.43 0.42 0.42 0.42 0.39 0.37 0.34 0.30 0.28 0.26 0.25
0.09 0.10 0.11 0.10 0.16 0.18 0.15 0.14 0.21 0.25 0.23 0.26 0.28 0.29 0.31 0.32 0.34 0.36 0.37 0.40 0.40 0.39 0.40 0.40 0.40 0.44 0.50 0.51 0.50 0.49 0.47 0.47 0.49 0.50 0.50 0.50 0.49 0.47 0.44 0.43 0.42 0.42 0.40 0.38 0.37 0.36 0.35 0.31 0.27
0.14 0.12 0.11 0.14 0.20 0.17 0.16 0.16 0.20 0.23 0.24 0.25 0.27 0.30 0.33 0.35 0.35 0.38 0.40 0.42 0.42 0.43 0.44 0.43 0.42 0.47 0.52 0.51 0.48 0.47 0.44 0.45 0.48 0.51 0.52 0.52 0.51 0.49 0.47 0.44 0.43 0.41 0.39 0.39 0.39 0.37 0.37 0.36 0.35
0.15 0.12 0.12 0.16 0.20 0.19 0.17 0.16 0.23 0.23 0.24 0.27 0.27 0.29 0.32 0.33 0.35 0.37 0.40 0.42 0.43 0.43 0.44 0.44 0.44 0.48 0.52 0.51 0.52 0.51 0.48 0.48 0.49 0.52 0.53 0.53 0.52 0.50 0.48 0.46 0.43 0.41 0.38 0.37 0.37 0.37 0.36 0.36 0.39
0.14 0.12 0.13 0.14 0.19 0.21 0.18 0.15 0.19 0.22 0.25 0.26 0.27 0.30 0.30 0.35 0.34 0.34 0.37 0.39 0.42 0.43 0.45 0.45 0.45 0.50 0.52 0.53 0.54 0.55 0.53 0.52 0.50 0.50 0.51 0.53 0.53 0.51 0.50 0.48 0.45 0.43 0.40 0.37 0.37 0.37 0.36 0.35 0.37
0.11 0.18 0.19 0.18 0.15 0.10 0.20 0.09 0.17 0.21 0.23 0.25 0.26 0.28 0.30 0.31 0.34 0.35 0.37 0.39 0.41 0.43 0.47 0.48 0.50 0.52 0.53 0.56 0.56 0.54 0.50 0.48 0.50 0.51 0.53 0.54 0.54 0.52 0.52 0.50 0.47 0.46 0.44 0.41 0.40 0.40 0.39 0.38 0.36
0.14 0.22 0.21 0.19 0.17 0.17 0.16 0.14 0.15 0.23 0.20 0.23 0.26 0.29 0.31 0.33 0.36 0.37 0.39 0.42 0.45 0.46 0.47 0.50 0.52 0.52 0.54 0.57 0.56 0.53 0.51 0.52 0.54 0.54 0.53 0.53 0.53 0.53 0.52 0.50 0.49 0.48 0.46 0.44 0.42 0.41 0.40 0.41 0.39
0.23 0.22 0.21 0.21 0.19 0.10 0.15 0.15 0.13 0.18 0.21 0.23 0.27 0.31 0.33 0.35 0.38 0.41 0.43 0.45 0.45 0.48 0.49 0.51 0.51 0.51 0.54 0.55 0.55 0.54 0.52 0.51 0.50 0.50 0.49 0.50 0.51 0.52 0.51 0.50 0.49 0.48 0.47 0.45 0.42 0.42 0.42 0.43 0.42
0.23 0.18 0.10 0.09 0.10 0.09 0.19 0.16 0.14 0.21 0.23 0.24 0.27 0.32 0.35 0.37 0.40 0.42 0.43 0.45 0.45 0.46 0.49 0.51 0.51 0.51 0.53 0.53 0.52 0.52 0.51 0.50 0.49 0.49 0.48 0.48 0.49 0.49 0.49 0.49 0.47 0.46 0.45 0.45 0.45 0.46 0.45 0.44 0.42
0.19 0.17 0.10 0.08 0.08 0.10 0.20 0.12 0.15 0.24 0.26 0.28 0.32 0.35 0.38 0.40 0.41 0.43 0.45 0.47 0.47 0.48 0.50 0.50 0.50 0.50 0.51 0.51 0.50 0.50 0.48 0.47 0.47 0.48 0.48 0.47 0.46 0.46 0.46 0.45 0.46 0.47 0.48 0.49 0.48 0.47 0.45 0.43 0.41
0.19 0.15 0.21 0.14 0.17 0.13 0.14 0.17 0.22 0.23 0.25 0.30 0.34 0.38 0.40 0.43 0.44 0.45 0.46 0.48 0.49 0.51 0.52 0.52 0.51 0.52 0.52 0.52 0.52 0.52 0.52 0.50 0.48 0.48 0.48 0.49 0.50 0.50 0.51 0.51 0.51 0.51 0.51 0.50 0.48 0.46 0.44 0.43 0.41
0.23 0.25 0.15 0.18 0.10 0.09 0.12 0.14 0.14 0.20 0.25 0.32 0.36 0.40 0.44 0.46 0.45 0.46 0.46 0.50 0.53 0.54 0.55 0.55 0.55 0.55 0.56 0.56 0.56 0.57 0.57 0.56 0.55 0.53 0.51 0.50 0.50 0.51 0.52 0.52 0.53 0.52 0.50 0.48 0.47 0.45 0.44 0.41 0.39
0.19 0.18 0.20 0.21 0.18 0.12 0.10 0.12 0.27 0.28 0.31 0.35 0.39 0.44 0.47 0.50 0.50 0.49 0.49 0.53 0.54 0.56 0.57 0.58 0.58 0.56 0.56 0.60 0.59 0.57 0.56 0.56 0.55 0.54 0.53 0.53 0.52 0.52 0.51 0.49 0.47 0.45 0.43 0.42 0.40 0.39 0.38 0.36 0.35
0.24 0.21 0.22 0.16 0.14 0.20 0.20 0.17 0.36 0.36 0.37 0.41 0.42 0.47 0.52 0.53 0.53 0.55 0.54 0.54 0.57 0.57 0.58 0.57 0.56 0.57 0.58 0.57 0.56 0.54 0.53 0.52 0.50 0.47 0.47 0.46 0.44 0.43 0.42 0.41 0.40 0.39 0.39 0.39 0.37 0.35 0.35 0.34 0.32
Wind_Speed
1 1 2 2 1 1 2 3 2 3 3 3 3 3 4 3 4 4 3 4 6 6 6 4 3 3 2 0 2 3 3 4 5 6 7 7 8 9 10 12 12 13 13 12 12 11 9 8 7
3 3 2 2 1 1 4 3 3 4 3 3 3 4 5 5 5 4 4 6 7 6 5 5 4 3 2 1 1 2 3 3 4 5 6 7 8 8 9 11 12 12 13 13 13 11 10 9 8
4 4 4 3 3 5 5 5 4 3 4 4 4 5 5 5 6 7 5 7 7 6 5 5 4 4 3 3 2 2 2 3 4 4 5 6 7 8 8 9 11 11 12 13 13 13 12 11 10
6 6 5 5 7 7 7 6 5 5 6 6 6 5 6 7 6 8 8 8 8 7 6 5 4 4 4 3 3 2 2 3 3 4 5 6 7 7 8 8 9 10 11 12 13 13 13 12 11
7 7 7 7 9 8 8 9 8 7 7 7 7 7 8 7 7 8 9 9 9 8 8 7 6 5 4 3 3 3 3 3 3 4 5 6 6 7 8 8 9 9 9 10 12 12 12 12 12
7 8 7 9 10 9 9 8 8 8 9 9 9 9 9 9 9 9 10 10 10 9 9 8 7 7 5 4 4 3 3 3 4 4 5 5 6 7 7 8 8 8 8 9 10 11 11 12 12
8 8 9 9 10 10 9 9 9 10 10 11 10 10 10 11 11 11 11 11 11 11 10 9 9 8 7 6 5 4 4 4 5 5 5 5 6 6 7 8 8 8 8 8 9 10 10 11 11
8 8 8 10 9 9 9 10 9 10 11 10 11 11 11 12 12 12 12 13 13 12 12 11 10 10 9 8 8 7 6 5 5 6 6 6 6 6 6 7 8 8 8 8 8 9 9 10 10
9 8 9 10 9 9 9 10 10 11 12 13 13 13 13 11 12 13 13 14 15 14 14 13 13 12 11 10 9 8 8 7 7 6 6 6 6 6 6 7 7 8 8 8 8 8 9 9 10
8 8 10 9 9 10 11 11 12 12 13 14 13 13 12 12 14 15 15 15 16 16 16 15 14 14 13 12 11 10 9 9 8 7 7 7 7 6 6 7 7 8 8 8 8 7 8 8 9
8 9 9 9 9 10 11 11 12 11 12 12 13 13 13 14 15 16 16 17 17 17 17 16 16 15 14 13 13 12 11 10 9 8 7 7 7 7 7 7 8 8 8 8 8 8 8 8 8
6 6 7 7 8 8 9 10 10 10 11 12 13 12 12 14 15 16 17 17 18 18 18 18 17 16 16 15 14 13 12 11 10 9 8 7 7 7 7 8 8 9 9 9 9 9 9 9 9
4 5 4 5 5 5 6 8 8 8 9 11 11 11 13 14 14 15 16 17 17 18 18 18 18 18 17 16 15 14 13 12 11 10 9 8 8 8 8 9 9 9 9 10 10 10 10 10 9
3 3 3 3 5 5 7 7 6 7 10 10 10 11 12 13 14 14 16 17 18 18 19 18 19 19 18 18 17 16 15 14 12 11 10 10 9 9 9 9 9 10 10 11 11 11 11 11 10
3 4 4 4 6 6 8 6 7 9 13 14 12 12 12 13 14 16 17 17 18 19 19 19 19 19 19 18 18 17 16 15 14 13 12 12 11 11 11 10 11 11 11 11 12 12 12 12 12
4 3 5 6 8 8 8 10 9 13 14 14 14 13 13 13 14 16 16 17 18 18 19 19 19 19 19 19 18 18 17 16 16 15 14 13 13 13 12 12 12 12 12 12 12 13 13 13 13
6 6 7 9 7 10 9 12 12 14 13 14 13 13 13 13 14 15 16 17 18 18 19 19 19 19 19 19 18 18 17 17 16 16 15 15 14 14 14 14 14 14 13 13 13 13 14 14 14
8 8 8 10 10 11 12 14 16 13 12 13 13 12 11 12 13 14 15 16 17 18 18 19 19 19 19 19 19 18 18 18 17 17 16 16 15 15 15 15 15 16 16 16 16 15 15 16 16
7 8 10 11 10 13 13 16 15 12 10 11 12 12 9 10 11 11 13 15 16 17 18 19 19 19 19 19 19 19 19 19 18 18 18 17 17 17 17 17 17 18 18 18 18 18 18 18 18
9 10 12 13 11 13 14 16 12 10 9 11 12 12 11 9 9 9 10 11 13 15 16 18 19 19 19 19 19 19 19 20 20 20 20 19 19 19 19 19 19 20 20 20 21 21 21 20 20
12 12 12 13 16 13 15 13 10 10 10 12 12 12 12 11 10 10 10 11 11 12 14 15 17 18 19 19 19 19 19 20 21 21 21 21 21 21 21 21 22 22 22 22 23 23 22 23 22
13 12 12 14 14 14 14 14 14 12 13 12 13 12 13 13 11 11 11 11 11 12 13 14 16 17 18 19 19 20 20 21 22 22 23 23 23 23 23 23 24 24 24 24 24 25 25 24 24
14 13 14 14 14 14 14 12 15 13 14 13 13 13 14 15 13 12 12 12 12 12 12 13 14 15 17 18 19 20 21 21 22 23 23 24 25 25 25 26 26 26 26 27 27 27 27 27 26
13 14 15 16 15 15 15 13 16 15 16 14 14 14 15 16 14 14 13 13 12 12 12 13 14 16 17 18 19 20 21 22 23 24 25 26 27 27 28 28 29 29 29 30 30 30 30 29 29
14 14 17 18 15 17 15 16 21 18 16 16 15 15 16 17 15 15 15 15 14 14 14 14 15 16 17 18 19 20 22 23 25 26 27 28 29 29 30 30 31 32 32 33 33 33 33 32 32
15 14 14 18 17 19 18 21 21 18 17 17 16 16 17 17 17 16 16 16 16 16 17 17 17 17 18 19 20 21 23 24 25 27 28 29 30 31 32 32 33 34 35 36 36 36 35 35 35
17 17 17 16 20 20 21 23 23 19 18 18 17 18 18 19 18 17 17 17 18 18 19 19 19 19 20 21 22 24 25 26 27 28 29 31 32 33 34 36 37 38 39 39 39 39 39 38 38
19 18 17 19 20 22 23 24 24 21 20 20 20 20 20 20 19 18 17 18 20 21 20 21 21 21 22 24 25 26 27 28 29 29 31 32 34 35 37 38 40 40 41 41 41 41 41 42 42
20 21 21 20 20 22 24 24 21 23 22 22 22 21 21 21 20 20 20 21 21 21 22 22 23 24 25 26 27 27 28 29 30 32 33 35 37 39 40 41 41 42 43 43 44 44 45 45 46
23 23 22 21 24 24 26 31 28 25 23 23 24 23 24 23 24 24 23 22 23 23 24 24 25 26 27 27 28 29 30 32 33 35 36 38 39 40 42 43 44 45 45 46 47 47 48 48 49
Wind_Direction
225 188 168 155 132 31 255 257 238 217 222 239 233 225 236 254 241 251 230 209 187 188 193 199 200 200 198 254 10 12 17 22 25 24 24 23 23 23 23 23 23 22 22 20 19 19 17 11 5
240 226 220 231 257 279 263 256 248 235 236 225 249 254 261 262 257 248 212 206 192 193 200 200 205 207 214 242 321 349 358 8 11 12 16 16 15 16 17 20 21 24 25 24 22 21 19 14 9
240 242 245 256 254 242 250 250 251 254 231 264 266 268 263 259 259 224 239 199 199 201 202 208 213 217 225 243 273 316 333 347 357 4 7 9 7 8 10 14 18 20 22 24 25 25 25 21 14
247 255 267 261 254 262 253 268 254 246 260 269 269 270 264 263 254 236 221 208 208 211 210 216 218 224 234 243 259 290 307 327 342 352 356 360 1 2 4 5 9 14 16 19 20 22 22 21 19
252 258 263 268 264 265 264 268 247 253 263 271 266 267 268 266 257 233 211 214 215 218 219 223 225 229 235 242 253 270 297 310 320 333 344 348 353 357 360 0 1 5 8 11 14 18 20 21 20
258 257 265 262 263 266 270 259 253 261 268 270 270 263 266 265 247 224 217 219 222 223 226 229 231 234 239 244 253 266 286 298 304 315 327 337 343 350 355 358 357 358 360 3 6 10 14 17 19
249 258 257 261 269 274 270 254 259 261 266 269 265 265 269 259 243 227 226 227 228 229 230 232 235 238 242 247 255 266 276 291 297 303 311 320 328 336 344 351 355 354 355 357 1 3 6 10 14
251 259 261 265 267 272 274 259 265 263 270 272 270 265 267 257 236 232 232 232 233 236 235 235 237 241 244 248 253 261 270 282 292 297 303 308 317 325 333 340 348 350 349 350 355 360 2 5 8
252 264 262 265 261 271 273 271 269 271 270 271 269 269 270 246 235 235 237 238 238 239 239 239 240 243 246 249 253 257 264 275 285 292 300 305 310 316 323 333 338 343 344 344 345 350 358 359 2
254 257 258 267 270 273 277 276 278 275 273 272 271 270 263 244 240 238 240 240 240 240 241 241 243 245 246 250 253 256 261 267 276 285 293 300 304 307 313 323 332 334 337 336 336 339 343 349 352
255 254 260 270 272 276 278 280 281 280 279 273 270 266 255 249 246 243 244 242 240 241 242 242 243 245 247 250 252 255 259 263 269 276 283 292 298 302 307 315 323 328 328 328 326 326 330 333 339
258 262 268 270 276 281 283 287 289 280 279 281 280 268 255 247 245 244 244 243 241 242 243 243 243 245 246 249 251 254 257 259 263 269 276 283 292 299 304 309 313 318 321 321 321 318 318 322 324
259 261 270 274 284 289 294 295 287 292 300 298 284 268 256 252 249 248 246 245 243 244 245 244 244 245 246 248 250 252 254 257 259 263 269 276 284 293 299 304 309 312 315 315 315 313 311 311 312
254 257 270 275 303 295 307 301 300 300 314 312 296 276 265 255 251 250 248 247 245 246 246 245 245 245 245 247 248 250 252 254 255 259 266 273 279 286 294 299 304 308 311 311 311 308 307 303 303
275 261 278 297 309 307 311 297 291 304 313 306 296 285 273 263 255 251 250 250 247 248 247 246 246 245 245 246 246 248 249 251 253 257 263 270 276 282 288 293 297 304 310 309 309 307 306 301 297
296 296 296 285 306 305 317 292 294 311 315 312 302 286 276 269 262 257 254 252 249 248 248 247 246 245 245 245 245 247 248 250 252 256 261 267 273 279 283 288 292 297 304 307 307 306 304 302 294
306 279 291 296 303 304 315 297 299 310 313 313 312 296 281 274 267 261 256 253 250 249 248 246 245 244 243 244 244 246 247 249 252 255 260 265 271 276 280 284 288 291 296 301 303 304 305 304 296
281 289 287 284 300 307 303 297 305 304 310 315 317 309 288 280 273 264 259 257 253 251 249 246 244 242 242 242 244 246 248 250 251 254 259 264 269 275 279 282 285 288 290 292 296 299 302 303 297
286 284 286 289 298 306 303 302 300 301 310 321 324 323 305 290 286 272 265 261 255 252 248 244 242 241 241 242 244 246 248 250 252 255 259 264 268 274 278 281 283 286 286 288 291 292 295 299 300
288 287 288 291 297 303 309 304 293 294 301 311 317 320 314 301 292 283 273 266 258 252 246 244 242 240 240 243 245 249 250 252 254 256 260 264 268 273 276 280 282 284 285 287 289 290 289 291 295
284 281 288 286 300 301 304 302 295 286 291 311 314 311 312 299 289 283 276 270 261 252 248 244 240 239 240 243 247 250 251 254 256 259 262 265 268 272 275 279 281 283 284 286 287 288 289 288 288
286 288 290 295 304 293 305 288 289 282 290 303 308 310 310 306 290 283 276 270 263 256 251 246 242 241 243 245 249 251 254 257 259 261 263 265 269 272 275 278 280 282 284 285 286 287 287 286 285
283 289 291 292 295 297 294 289 286 285 282 292 298 304 306 306 286 276 273 270 264 256 251 247 245 245 247 250 253 255 257 260 262 264 265 268 271 274 276 278 280 281 283 284 285 285 285 284 282
278 289 295 295 292 292 285 284 286 280 281 282 287 297 300 303 290 278 272 267 263 256 253 251 250 252 253 255 257 259 261 262 264 266 268 270 272 274 276 278 279 280 281 283 284 284 283 282 280
282 290 294 296 293 280 284 289 282 286 286 283 282 291 296 298 291 279 269 261 257 256 256 256 255 257 258 260 263 265 266 267 268 269 270 272 273 275 276 278 279 280 281 282 283 283 282 280 279
275 277 279 279 285 289 291 282 290 288 286 284 284 286 292 296 291 280 269 259 256 257 259 260 261 261 263 265 268 270 271 272 272 273 273 274 275 276 277 278 279 280 281 282 282 281 280 279 278
279 278 282 286 289 292 284 289 287 285 285 284 283 287 290 293 293 284 268 262 259 259 260 262 263 265 266 269 272 274 276 276 276 276 276 276 277 278 279 279 280 281 281 281 280 280 279 278 277
276 279 287 288 288 285 287 288 285 279 277 278 282 285 286 289 291 286 273 267 264 264 263 264 265 267 269 273 275 277 278 279 279 278 279 279 280 280 281 281 282 282 281 281 280 279 278 277 277
279 280 282 280 277 279 287 284 286 285 279 277 280 281 282 284 285 285 277 273 269 265 265 267 267 270 273 276 277 279 280 281 281 281 282 282 282 282 282 282 282 282 281 281 280 279 278 277 277
279 275 274 274 279 277 282 284 290 286 283 278 278 279 281 282 283 281 277 271 271 266 270 269 271 273 276 277 278 280 282 283 283 283 284 284 284 284 283 283 282 282 281 281 280 279 278 277 277